Weather History for KD60 - July, 2014

Change the Weather History Date:

Tuesday, July 22, 2014

  Actual Average (KISN) Record (KISN)
Temperature  
Mean Temperature 64 °F 71 °F  
Max Temperature 80 °F 86 °F 103 °F (1988)
Min Temperature 48 °F 57 °F 38 °F (1896)
Degree Days  
Heating Degree Days 1 0  
Month to date heating degree days 21  
Since 1 June heating degree days 141  
Since 1 July heating degree days 21  
Cooling Degree Days 0 7  
Month to date cooling degree days 119  
Year to date cooling degree days 200  
Since 1 June cooling degree days 187  
Growing Degree Days 14 (Base 50)    
Moisture  
Dew Point 59 °F    
Average Humidity 83    
Maximum Humidity 100    
Minimum Humidity 42    
Precipitation  
Precipitation 0.00 in 0.07 in 1.30 in (1999)
Month to date precipitation 1.98  
Year to date precipitation 9.11  
Snow  
Snow 0.00 in 0.00 in 0.00 in ()
Snow Depth -    
Sea Level Pressure  
Sea Level Pressure 30.20 in    
Wind  
Wind Speed 4 mph (ENE)    
Max Wind Speed 14 mph    
Max Gust Speed 17 mph    
Visibility 7 miles    
Events Fog    
T = Trace of Precipitation, MM = Missing Value Source: NWS Daily Summary

Daily Weather History Graph

Daily Weather History Graph

Search for Another Location

Airport or City:

Trip Planner

Search our weather history database for the weather conditions in past years. The results will help you decide how hot, cold, wet, or windy it might be!

Date:

Astronomy

Jul. 22, 2014 Rise Set
Actual Time 6:14 AM CDT 9:41 PM CDT
Civil Twilight 5:35 AM CDT 10:19 PM CDT
Nautical Twilight 4:44 AM CDT 11:10 PM CDT
Astronomical Twilight 3:35 AM CDT 12:18 AM CDT
Moon 2:52 AM CDT (7/22) 6:18 PM CDT (7/22)
Length of Visible Light 16h 44m
Length of Day
15h 27m
Waning Crescent, 16% of the Moon is Illuminated
Jul 22
Waning Crescent
Jul 26
New
Aug 3
First Quarter
Aug 10
Full
Aug 17
Last Quarter

Hourly Weather History & Observations

Time (CDT) Temp. Heat Index Dew Point Humidity Pressure Visibility Wind Dir Wind Speed Gust Speed Precip Events Conditions
12:35 AM 53.6 °F - 53.6 °F 100% 30.06 in 0.2 mi WSW 4.6 mph - N/A Fog Fog
12:55 AM 53.6 °F - 53.6 °F 100% 30.07 in 0.2 mi Calm Calm - N/A Fog Fog
1:15 AM 51.8 °F - 51.8 °F 100% 30.08 in 0.2 mi WSW 3.5 mph - N/A Fog Fog
1:35 AM 50.0 °F - 50.0 °F 100% 30.09 in 0.2 mi Calm Calm - N/A Fog Fog
1:55 AM 50.0 °F - 50.0 °F 100% 30.09 in 0.5 mi WSW 3.5 mph - N/A Fog Fog
2:15 AM 50.0 °F - 50.0 °F 100% 30.10 in 0.8 mi Calm Calm - N/A   Mist
2:35 AM 50.0 °F - 50.0 °F 100% 30.10 in 1.2 mi WSW 3.5 mph - N/A   Clear
2:55 AM 48.2 °F - 48.2 °F 100% 30.10 in 0.5 mi Calm Calm - N/A Fog Fog
3:15 AM 50.0 °F - 50.0 °F 100% 30.11 in 0.2 mi SW 3.5 mph - N/A Fog Fog
3:35 AM 51.8 °F - 51.8 °F 100% 30.11 in 0.2 mi Calm Calm - N/A Fog Fog
3:55 AM 50.0 °F - 50.0 °F 100% 30.11 in 0.2 mi Calm Calm - N/A Fog Fog
4:15 AM 50.0 °F - 50.0 °F 100% 30.12 in 0.2 mi ESE 3.5 mph - N/A Fog Fog
4:35 AM 50.0 °F - 50.0 °F 100% 30.12 in 0.5 mi East 3.5 mph - N/A Fog Fog
4:55 AM 50.0 °F - 50.0 °F 100% 30.13 in 0.2 mi South 3.5 mph - N/A Fog Fog
5:15 AM 50.0 °F - 50.0 °F 100% 30.14 in 0.2 mi Calm Calm - N/A Fog Fog
5:35 AM 50.0 °F - 50.0 °F 100% 30.14 in 0.5 mi Calm Calm - N/A Fog Fog
5:55 AM 48.2 °F - 48.2 °F 100% 30.14 in 0.8 mi Calm Calm - N/A   Overcast
6:15 AM 48.2 °F - 48.2 °F 100% 30.15 in 0.5 mi Calm Calm - N/A Fog Fog
6:35 AM 48.2 °F - 48.2 °F 100% 30.16 in 0.2 mi Calm Calm - N/A Fog Fog
6:55 AM 50.0 °F - 50.0 °F 100% 30.17 in 0.2 mi SSW 4.6 mph - N/A Fog Fog
7:15 AM 53.6 °F - 53.6 °F 100% 30.17 in 0.2 mi Calm Calm - N/A Fog Fog
7:35 AM 53.6 °F - 53.6 °F 100% 30.18 in 0.5 mi Calm Calm - N/A Fog Fog
7:55 AM 55.4 °F - 55.4 °F 100% 30.18 in 2.0 mi Calm Calm - N/A   Overcast
8:15 AM 55.4 °F - 55.4 °F 100% 30.19 in 4.0 mi Calm Calm - N/A   Mostly Cloudy
8:35 AM 57.2 °F - 57.2 °F 100% 30.20 in 8.0 mi Calm Calm - N/A   Mostly Cloudy
8:55 AM 59.0 °F - 59.0 °F 100% 30.20 in 8.0 mi Calm Calm - N/A   Overcast
9:15 AM 62.6 °F - 62.6 °F 100% 30.20 in 10.0 mi South 3.5 mph - N/A   Mostly Cloudy
9:35 AM 64.4 °F - 64.4 °F 100% 30.21 in 10.0 mi Calm Calm - N/A   Scattered Clouds
9:55 AM 66.2 °F - 66.2 °F 100% 30.21 in 10.0 mi South 3.5 mph - N/A   Partly Cloudy
10:15 AM 69.8 °F - 69.8 °F 100% 30.21 in 10.0 mi Calm Calm - N/A   Scattered Clouds
10:35 AM 69.8 °F - 69.8 °F 100% 30.21 in 10.0 mi WNW 3.5 mph - N/A   Scattered Clouds
10:55 AM 71.6 °F - 71.6 °F 100% 30.22 in 10.0 mi WNW 3.5 mph - N/A   Scattered Clouds
11:15 AM 71.6 °F - 69.8 °F 94% 30.22 in 10.0 mi Calm Calm - N/A   Partly Cloudy
11:35 AM 73.4 °F - 69.8 °F 88% 30.22 in 10.0 mi ENE 4.6 mph - N/A   Mostly Cloudy
11:55 AM 73.4 °F - 68.0 °F 83% 30.22 in 10.0 mi NNE 3.5 mph - N/A   Mostly Cloudy
12:15 PM 73.4 °F - 66.2 °F 78% 30.23 in 10.0 mi Calm Calm - N/A   Mostly Cloudy
12:35 PM 75.2 °F - 66.2 °F 73% 30.22 in 10.0 mi NNE 5.8 mph - N/A   Scattered Clouds
12:55 PM 75.2 °F - 64.4 °F 69% 30.23 in 10.0 mi ENE 4.6 mph - N/A   Scattered Clouds
1:15 PM 75.2 °F - 64.4 °F 69% 30.23 in 10.0 mi WSW 3.5 mph - N/A   Scattered Clouds
1:35 PM 77.0 °F - 59.0 °F 54% 30.23 in 10.0 mi NW 8.1 mph - N/A   Scattered Clouds
1:55 PM 78.8 °F - 59.0 °F 51% 30.23 in 10.0 mi NNW 8.1 mph - N/A   Scattered Clouds
2:15 PM 77.0 °F - 59.0 °F 54% 30.23 in 10.0 mi NW 4.6 mph - N/A   Scattered Clouds
2:35 PM 80.6 °F 80.8 °F 57.2 °F 45% 30.23 in 10.0 mi North 8.1 mph - N/A   Scattered Clouds
2:55 PM 77.0 °F - 57.2 °F 50% 30.23 in 10.0 mi NW 8.1 mph - N/A   Mostly Cloudy
3:15 PM 80.6 °F 80.8 °F 57.2 °F 45% 30.23 in 10.0 mi North 5.8 mph - N/A   Scattered Clouds
3:35 PM 80.6 °F 80.8 °F 57.2 °F 45% 30.23 in 10.0 mi WNW 8.1 mph - N/A   Partly Cloudy
3:55 PM 80.6 °F 80.8 °F 57.2 °F 45% 30.23 in 10.0 mi North 6.9 mph - N/A   Partly Cloudy
4:15 PM 80.6 °F 80.8 °F 57.2 °F 45% 30.23 in 10.0 mi North 6.9 mph - N/A   Partly Cloudy
4:35 PM 80.6 °F 80.8 °F 57.2 °F 45% 30.23 in 10.0 mi NNW 8.1 mph - N/A   Mostly Cloudy
4:55 PM 80.6 °F 80.5 °F 55.4 °F 42% 30.23 in 10.0 mi NNW 9.2 mph - N/A   Partly Cloudy
5:15 PM 78.8 °F - 55.4 °F 44% 30.23 in 10.0 mi SW 4.6 mph - N/A   Partly Cloudy
5:35 PM 80.6 °F 80.8 °F 57.2 °F 45% 30.23 in 10.0 mi NE 10.4 mph - N/A   Scattered Clouds
5:55 PM 77.0 °F - 64.4 °F 65% 30.24 in 10.0 mi ENE 10.4 mph 17.3 mph N/A   Scattered Clouds
6:15 PM 75.2 °F - 64.4 °F 69% 30.25 in 10.0 mi ENE 11.5 mph - N/A   Mostly Cloudy
6:35 PM 77.0 °F - 64.4 °F 65% 30.24 in 10.0 mi ENE 13.8 mph - N/A   Scattered Clouds
6:55 PM 77.0 °F - 64.4 °F 65% 30.24 in 10.0 mi East 12.7 mph - N/A   Partly Cloudy
7:15 PM 77.0 °F - 64.4 °F 65% 30.24 in 10.0 mi East 13.8 mph - N/A   Partly Cloudy
7:35 PM 75.2 °F - 64.4 °F 69% 30.24 in 10.0 mi East 13.8 mph 17.3 mph N/A   Partly Cloudy
7:55 PM 75.2 °F - 64.4 °F 69% 30.24 in 10.0 mi East 12.7 mph - N/A   Clear
8:15 PM 73.4 °F - 64.4 °F 73% 30.23 in 10.0 mi East 11.5 mph - N/A   Clear
8:35 PM 73.4 °F - 64.4 °F 73% 30.25 in 10.0 mi East 13.8 mph - N/A   Clear
8:55 PM 71.6 °F - 64.4 °F 78% 30.25 in 10.0 mi East 11.5 mph - N/A   Clear
9:15 PM 71.6 °F - 66.2 °F 83% 30.26 in 10.0 mi East 8.1 mph - N/A   Scattered Clouds
9:35 PM 69.8 °F - 66.2 °F 88% 30.26 in 10.0 mi East 6.9 mph - N/A   Overcast
9:55 PM 68.0 °F - 68.0 °F 100% 30.26 in 10.0 mi East 8.1 mph - N/A   Mostly Cloudy
10:15 PM 68.0 °F - 68.0 °F 100% 30.27 in 10.0 mi East 6.9 mph - N/A   Mostly Cloudy
10:35 PM 66.2 °F - 66.2 °F 100% 30.28 in 10.0 mi East 4.6 mph - N/A   Mostly Cloudy
10:55 PM 66.2 °F - 66.2 °F 100% 30.28 in 10.0 mi East 5.8 mph - N/A   Mostly Cloudy
11:15 PM 66.2 °F - 66.2 °F 100% 30.29 in 10.0 mi East 4.6 mph - N/A   Mostly Cloudy
11:35 PM 66.2 °F - 66.2 °F 100% 30.29 in 10.0 mi Calm Calm - N/A   Mostly Cloudy
11:55 PM 64.4 °F - 64.4 °F 100% 30.30 in 10.0 mi ENE 3.5 mph - N/A   Overcast